Regional Weather Roundup
Issued by NWS

Home | Current Version | Previous Version | Text Only | Print | Product List | Glossary Off
Versions: 1 2 3 4 5 6 7 8 9 10 11 12 13 14 15 16 17 18 19 20 21 22 23 24 25 26 27 28 29 30 31 32 33 34 35 36 37 38 39 40 41 42 43 44 45 46 47 48 49 50

000
ASUS43 KLSX 201607
RWRMO

WEATHER SUMMARY FOR MISSOURI
NATIONAL WEATHER SERVICE SPRINGFIELD MO
1000 AM CST TUE FEB 20 2018

NOTE: "FAIR" INDICATES FEW OR NO CLOUDS BELOW 12,000 FEET WITH NO
       SIGNIFICANT WEATHER AND/OR OBSTRUCTIONS TO VISIBILITY.
       CURRENT SKY AND/OR WEATHER CONDITIONS ARE NOT AVAILABLE FOR
       CHILLICOTHE AND FARMINGTON.

MOZ001>031-035>038-043-044-053-054-201700-
...NORTHERN AND WESTERN MISSOURI...

CITY           SKY/WX    TMP DP  RH WIND       PRES   REMARKS
KANSAS CTY INT LGTSLEET  29  27  92 NW20G25   29.99R FOG     WCI  16
KANSAS C DTWN  LGT SNOW  32  29  88 NW7       30.00R FOG     WCI  26
LEE`S SUMMIT   FRZ RAIN  31  29  92 N15       29.95R FOG     WCI  20
ST JOSEPH      CLOUDY    26  24  92 NW17      30.02R WCI  13
CHILLICOTHE      N/A     32  30  92 NE7       29.91F WCI  26
KIRKSVILLE     FRZ RAIN  33  32  96 CALM      29.93R FOG

$$
MOZ066>068-077>081-088>096-101>105-201700-
...SOUTHWEST MISSOURI...

CITY           SKY/WX    TMP DP  RH WIND       PRES   REMARKS
SPRINGFIELD    PTSUNNY   66  64  93 S20G37    29.85F
JOPLIN         CLOUDY    38  38 100 N6        29.92R
BRANSON        CLOUDY    66  64  94 SE12G18   29.93F

$$
MOZ032>034-039>042-045>050-055>058-069>072-201700-
...CENTRAL MISSOURI...

CITY           SKY/WX    TMP DP  RH WIND       PRES   REMARKS
COLUMBIA       CLOUDY    51  49  92 W21G35    29.86R
JEFFERSON CITY CLOUDY    69  60  73 S17G28    29.84R
ROLLA          LGT RAIN  66  61  84 S24G36    29.89F
SEDALIA        HVY RAIN  34  34 100 N10       29.94F FOG     WCI  26
WHITEMAN AFB   FRZ RAIN  33  31  94 NE8       29.88F WCI  25
WARRENSBURG    MIX PCPN  32  32 100 N6        29.94F WCI  26
OSAGE BEACH    CLOUDY    68  62  81 S15G24    29.86S

$$
MOZ051-052-059>065-201700-
...EAST CENTRAL MISSOURI...

CITY           SKY/WX    TMP DP  RH WIND       PRES   REMARKS
ST LOUIS INTL  LGT RAIN  66  63  90 S21G28    29.92S
SPIRIT OF STL  CLOUDY    67  62  84 S15G30    29.89F
ST CHARLES     CLOUDY    66  61  84 S18G28    29.90F

$$
MOZ072>076-082>087-097>100-106>115-201700-
...SOUTH CENTRAL AND SOUTHEAST MISSOURI...

CITY           SKY/WX    TMP DP  RH WIND       PRES   REMARKS
CAPE GIRARDEAU PTSUNNY   68  61  78 S21G30    30.07S
FARMINGTON     LGT RAIN  64  62  93 S17       30.00F
POPLAR BLUFF   PTSUNNY   70  64  81 S22G33    30.05F
WEST PLAINS    CLOUDY    64  61  90 S14G26    30.00S

$$



USA.gov is the U.S. government's official web portal to all federal, state and local government web resources and services.